Location: Hurecourt
(47.9030°N, 6.0653°E)
Time: 00:48:46
(UTC+00:00)

Daily predictions for brighter satellites

Satellite Brightness Start Highest point End
(mag) Time Altitude Azimuth Time Altitude Azimuth Time Altitude Azimuth
CZ-4 R/B 3.8 00:03:23 10° NNE 00:08:09 78° ESE 00:09:37 45° S
Landsat 4 3.8 00:06:18 10° N 00:10:06 66° WNW 00:10:43 54° SW
Cosmos 1441 Rocket 3.4 00:10:43 53° SW 00:11:24 64° WNW 00:15:21 10° N
Lacrosse 5 1.8 00:10:40 35° SW 00:12:52 87° SE 00:17:58 10° NE
SL-16 R/B 3.7 00:11:55 10° SE 00:17:34 40° ENE 00:23:20 10° N
BREEZE-M DEB (TANK) 3.6 00:10:25 10° WSW 00:20:05 63° S 00:23:39 10° E
Meteor 1-4 Rocket 2.5 00:17:13 10° N 00:20:57 81° E 00:21:27 64° SSE
Okean 1 4.0 00:18:55 10° N 00:22:46 47° ENE 00:24:06 33° SE
CZ-4C R/B 4.2 00:18:38 10° WNW 00:24:26 25° WSW 00:26:33 22° SW
Cosmos 1933 Rocket 3.9 00:23:25 40° SE 00:24:37 55° E 00:28:52 10° NNE
Cosmos 1607 4.5 00:20:03 18° WSW 00:24:37 56° NW 00:30:52 10° NNE
Cosmos 1666 Rocket 4.1 00:23:50 38° WSW 00:25:02 49° WNW 00:29:17 10° N
Iridium 4 Rocket 3.6 00:24:13 37° S 00:26:34 87° E 00:31:55 10° N
Cosmos 1697 Rocket 4.3 00:26:44 10° NNW 00:31:49 33° NE 00:36:50 10° ESE
Helios 1B rocket 2.4 00:27:53 10° N 00:32:00 74° WNW 00:33:01 49° SW
NOSS 2-1 (C) 4.2 00:27:08 10° NW 00:32:13 88° SW 00:39:01 11° SE
USA 267 3.8 00:32:12 32° SSW 00:33:49 36° SW 00:39:44 10° WNW
Cosmos 1437 Rocket 4.5 00:31:59 10° N 00:35:33 29° ENE 00:38:00 16° ESE
Cosmos 1703 Rocket 4.0 00:31:43 10° N 00:36:08 57° ENE 00:38:05 30° SE
NOSS 2-1 (D) 4.3 00:31:52 10° NW 00:37:01 83° SW 00:43:45 12° SE
SeaSat 1 4.0 00:39:05 10° NE 00:43:01 23° ESE 00:45:02 18° SE
Cosmos 2082 Rocket 4.3 00:40:40 10° SE 00:44:01 16° E 00:47:26 10° ENE
Cosmos 614 Rocket 4.4 00:43:22 32° SSE 00:45:21 50° ESE 00:50:18 10° NNE
CZ-2D R/B 3.1 00:41:15 10° NNE 00:46:15 39° E 00:49:08 22° SSE
Cosmos 1833 Rocket 4.0 00:44:54 19° SE 00:47:36 28° ESE 00:52:17 10° NE
Cosmos 2100 Rocket 4.2 00:45:05 28° S 00:48:30 68° E 00:54:42 10° NNE
DELTA 2 DEB (DPAF) 4.3 00:46:51 30° SSE 00:49:00 70° ENE 00:53:27 10° N
Meteor 1-25 Rocket 4.2 00:47:42 34° SSW 00:50:14 79° WNW 00:55:50 10° N
Cosmos 1184 Rocket 2.5 00:49:58 74° SSW 00:50:14 88° W 00:53:31 10° N
Cosmos 1656 3.8 00:46:29 10° NNW 00:51:56 70° ENE 00:56:32 15° SE
Cosmos 1238 Rocket 3.7 00:50:05 33° SW 00:52:10 53° WNW 00:56:37 10° N
COSMOS 2406 3.9 00:49:39 27° SSE 00:52:19 45° ESE 00:57:47 10° NE
Cosmos 405 Rocket 2.9 00:52:44 43° SSE 00:53:44 60° E 00:57:27 10° NNE
Cosmos 1459 Rocket 4.1 00:52:49 28° S 00:56:09 71° E 01:02:19 10° NNE
Cosmos 407 Rocket 4.1 00:55:13 28° SSE 00:57:42 49° ESE 01:02:52 10° NNE
Meteor 1-29 3.4 00:56:31 10° N 00:59:50 49° WNW 01:00:26 43° WSW
Cosmos 1500 4.2 00:58:26 27° SE 00:59:50 39° E 01:03:23 10° NNE
Cosmos 220 Rocket 4.2 00:56:06 10° NNW 01:00:22 68° ENE 01:02:54 23° SE
Meteor 1-20 Rocket 4.4 00:58:23 31° SSW 01:01:00 64° WNW 01:06:41 10° N
SL-24 DEB 4.3 00:56:41 10° N 01:01:25 71° W 01:03:20 36° SSW
Cosmos 724 4.5 00:59:22 25° SW 01:02:48 66° NW 01:08:37 10° NNE
Cosmos 1802 Rocket 4.2 01:03:01 25° S 01:06:56 71° E 01:13:21 10° NNE
Meteor 1-18 Rocket 4.3 01:04:06 10° NNW 01:09:52 65° W 01:12:50 29° SSW
CZ-4C R/B 3.2 01:11:32 33° SSE 01:13:10 82° ENE 01:16:51 10° NNW
Cosmos 1515 3.7 01:10:50 10° NNW 01:14:39 67° W 01:15:49 41° SSW
Cosmos 1666 4.4 01:13:11 16° SE 01:15:20 26° E 01:18:31 10° NNE
Okean 1-7 3.1 01:13:39 10° NNW 01:18:01 61° W 01:19:45 34° SSW
Meteor 1-19 Rocket 4.4 01:18:45 10° NNW 01:24:15 55° W 01:27:06 27° SSW
ADEOS II 3.3 01:19:42 10° NNE 01:24:30 34° E 01:28:37 13° SSE
Cosmos 1725 Rocket 4.2 01:21:06 21° S 01:25:25 68° E 01:31:38 10° NNE
NPP 3.8 01:20:07 10° NNE 01:25:31 70° ESE 01:28:51 24° S
Resurs 1-4 Rocket 2.1 01:23:50 10° NNE 01:29:12 88° ESE 01:32:21 25° SSW
ISS -2.9 01:27:52 10° WNW 01:31:11 52° NNE 01:34:29 10° E
Cosmos 1241 Rocket 4.5 01:25:52 10° NW 01:32:17 74° WSW 01:38:47 10° SSE
Cosmos 1733 Rocket 4.2 01:29:34 15° SSE 01:32:39 36° E 01:36:38 10° NNE
AQUA 4.0 01:28:42 10° NNE 01:33:27 67° ESE 01:36:23 23° S
UNK 3.8 01:33:05 27° S 01:35:30 60° W 01:40:06 10° NNW
Abrixas rocket 1.7 01:35:13 20° W 01:37:01 85° SSW 01:39:55 10° ESE
Tsikada Rocket 4.1 01:32:36 10° N 01:39:04 83° E 01:45:05 12° S
ATLAS 5 CENTAUR R/B 3.0 01:36:14 10° NW 01:41:41 57° NE 01:48:01 10° ESE
Gbstr 26 Del rocket 3.0 01:39:41 10° WNW 01:43:47 88° NNE 01:48:41 10° ESE
Cosmos 2061 Rocket 4.1 01:41:58 22° SSW 01:46:17 74° W 01:52:36 10° N
Cosmos 2173 Rocket 4.4 01:43:03 22° SW 01:47:03 51° WNW 01:53:12 10° N
Cosmos 2369 3.7 01:41:22 10° NNW 01:47:08 86° WSW 01:52:52 10° SSE
Cosmos 1980 Rocket 2.7 01:42:14 10° NNW 01:47:55 62° ENE 01:53:33 10° SE
SL-8 R/B 3.6 01:46:35 18° WSW 01:50:08 77° SSE 01:54:57 10° ENE
Okean 3 3.5 01:52:04 10° NNW 01:56:12 58° W 01:58:48 21° SSW
Lacrosse 5 3.3 01:51:36 10° W 01:56:17 36° NNW 02:01:00 10° NE
Cosmos 2016 Rocket 4.2 01:53:41 20° SSW 01:57:55 61° WNW 02:04:07 10° N
Meteor 1-5 Rocket 4.3 01:55:49 20° SSW 01:59:47 70° WNW 02:05:40 10° N
IDEFIX/ARIANE 42P 4.4 01:55:44 10° NE 01:59:59 25° E 02:04:14 10° SSE
SL-16 R/B 3.0 01:57:01 19° SSW 02:01:08 42° W 02:07:03 10° NNW
BREEZE-M DEB (TANK) 3.6 01:59:05 10° W 02:01:50 42° SSW 02:09:59 10° SE
Meteor 2-4 Rocket 4.3 01:58:53 10° NNW 02:04:28 43° W 02:08:32 18° SSW
Cosmos 1536 2.8 02:02:53 19° S 02:05:42 88° E 02:09:46 10° N
Cosmos 1356 4.2 02:04:45 15° SSE 02:07:21 48° E 02:10:42 10° NNE
Cosmos 2278 3.7 02:01:49 10° NNW 02:07:35 87° WSW 02:13:18 10° SSE
Meteor 1-11 Rocket 3.7 02:04:11 17° SSW 02:08:29 83° W 02:14:03 10° N
SL-16 R/B 4.1 02:04:57 10° NNW 02:10:05 33° NE 02:15:10 10° ESE
Cosmos 1190 Rocket 4.4 02:06:38 19° SW 02:10:17 54° WNW 02:15:27 10° NNE
H-2A R/B 4.0 02:06:43 10° SE 02:10:32 30° ENE 02:14:19 10° N
Cosmos 1437 Rocket 4.0 02:08:21 10° NW 02:11:42 25° W 02:13:22 19° SW
Cosmos 1954 Rocket 4.0 02:08:19 18° SSW 02:12:14 83° WNW 02:17:36 10° NNE
Cosmos 921 Rocket 3.0 02:08:04 10° NNW 02:12:28 70° WSW 02:16:45 10° S
Cosmos 1697 Rocket 2.9 02:10:35 10° NW 02:15:59 49° WSW 02:21:21 10° S
Cosmos 2221 Rocket 4.0 02:12:07 10° NNW 02:16:19 43° W 02:19:26 17° SSW
SeaSat 1 2.7 02:15:58 10° NNE 02:20:50 59° NW 02:24:48 15° SW
Cosmos 1378 Rocket 3.7 02:18:09 10° N 02:22:34 79° E 02:27:00 10° SSE
CZ-4B R/B 3.9 02:20:20 10° N 02:25:15 51° WNW 02:29:11 15° SW
IRS-1D 3.6 02:20:28 10° N 02:25:23 63° WNW 02:29:30 14° SSW
CZ-2D R/B 3.1 02:21:27 10° N 02:26:15 35° WNW 02:30:27 13° SW
Cosmos 2082 Rocket 2.2 02:22:31 15° SSW 02:27:19 86° WNW 02:33:04 10° NNE
COBE Rocket 4.1 02:24:02 10° S 02:28:58 56° W 02:33:48 10° NNW
Cosmos 1763 Rocket 3.7 02:24:18 10° NNW 02:29:34 79° ENE 02:34:53 10° SSE
Aureole 1 Rocket 4.1 02:26:02 15° SW 02:29:48 50° WNW 02:35:53 10° NNE
Cosmos 1833 Rocket 3.1 02:26:35 14° SW 02:31:12 53° WNW 02:36:43 10° NNE
Meteor 1-23 Rocket 4.3 02:27:29 10° NNW 02:33:11 68° W 02:38:55 10° S
Cosmos 1900 4.3 02:29:33 15° SW 02:33:38 83° NW 02:38:40 10° NE
ERS-2 3.4 02:31:16 10° SE 02:34:44 43° ENE 02:38:13 10° N
Meteor 1-28 Rocket 3.1 02:32:18 10° S 02:35:59 78° WSW 02:39:45 10° NNW
Cosmos 1140 Rocket 4.4 02:32:12 13° WSW 02:36:28 36° WNW 02:41:19 10° N
COSMOS 2406 4.2 02:31:43 11° WSW 02:36:45 36° NW 02:42:04 10° NNE
Okean 2 4.4 02:33:54 10° N 02:37:53 47° ENE 02:41:49 10° SSE
CBERS-1 4.4 02:33:31 10° N 02:38:30 50° WNW 02:43:03 12° SW
Cosmos 468 Rocket 4.0 02:35:29 10° NNW 02:40:48 75° WSW 02:46:07 10° SSE
CZ-2D R/B 3.9 02:39:35 10° NNE 02:43:58 67° E 02:48:13 10° S
SWAS 4.5 02:41:09 12° SSW 02:45:06 86° ESE 02:49:27 10° NNE
Cosmos 2233 Rocket 4.4 02:39:40 12° SSW 02:45:19 51° WNW 02:51:25 10° N
Cosmos 1271 Rocket 3.3 02:42:23 10° N 02:46:10 59° ENE 02:49:52 10° SSE
Cosmos 1674 Rocket 3.9 02:43:23 10° NNW 02:47:33 44° W 02:51:39 10° SSW
Cosmos 1666 4.1 02:48:04 12° SW 02:50:53 25° WNW 02:54:02 10° NNW
Cosmos 2322 Rocket 3.3 02:46:02 10° NNW 02:51:35 51° ENE 02:57:05 10° SE
ATLAS 5 CENTAUR R/B 4.1 02:47:43 10° WNW 02:51:56 31° SW 03:03:49 10° S
Cosmos 1850 Rocket 4.1 02:46:51 10° SSW 02:52:12 89° ESE 02:57:35 10° NNE
Cosmos 841 Rocket 3.8 02:52:00 10° NNW 02:57:12 74° ENE 03:02:22 10° SSE
Cosmos 540 Rocket 3.8 02:52:15 10° NNW 02:57:24 70° ENE 03:02:32 10° SSE
ARIANE 5 R/B 2.6 02:52:35 10° N 02:57:40 69° WNW 03:02:45 10° SSW
IRS-1C 4.4 02:53:20 10° N 02:58:33 54° WNW 03:03:43 10° SW
Cosmos 1782 Rocket 4.0 02:54:57 10° S 02:59:20 65° E 03:03:44 10° NNE
ADEOS II 2.9 02:59:23 10° N 03:04:13 38° WNW 03:09:00 10° SW
Cosmos 1544 3.1 03:01:13 10° S 03:04:47 84° ESE 03:08:24 10° N
USA 238 DEB 4.3 02:59:42 10° SSW 03:06:05 51° ESE 03:12:42 10° NE
USA 238 4.3 02:59:48 10° SSW 03:06:10 51° ESE 03:12:46 10° NE
Cosmos 1818 3.6 03:00:51 10° NW 03:06:12 58° WSW 03:11:31 10° SSE
Cosmos 1743 3.0 03:03:01 10° SSW 03:06:43 49° WNW 03:10:28 10° N
SL-08 R/B 4.0 03:02:47 10° SSW 03:07:07 35° W 03:11:34 10° NNW
ISS -3.5 03:04:43 10° WNW 03:07:58 46° SSW 03:11:12 10° SE
Resurs 1-4 Rocket 4.0 03:05:01 10° NNW 03:08:19 17° NW 03:11:36 10° W
Spot 4 Rocket 4.1 03:04:39 10° NNE 03:09:49 76° WNW 03:14:58 10° SSW
Cosmos 1741 Rocket 4.1 03:04:54 10° SSW 03:10:05 70° WNW 03:15:21 10° NNE
Cosmos 1733 Rocket 4.4 03:07:04 10° SW 03:10:34 24° WNW 03:14:05 10° NNW
Cosmos 1908 Rocket 3.8 03:06:48 10° SSW 03:11:11 56° WNW 03:15:36 10° N
Abrixas rocket 3.0 03:09:46 10° W 03:12:13 25° SSW 03:14:40 10° SSE
Nadezhda 4 Rocket 4.2 03:07:08 10° N 03:13:31 87° E 03:19:51 10° S
Landsat 5 3.2 03:09:44 10° S 03:13:38 75° WSW 03:17:29 10° NNW
CENTAUR R/B 3.8 03:11:11 10° S 03:16:26 35° ESE 03:22:30 10° NE
